CAPE
0 0 0 0 0 0 0 3 12 25 30 4 16 0 0 4 0 0 0 0 0 0 0 0 0 0 0 0 0 3 0 6 0 26 148 64 130 24 35 53 7 33 68 129
0 0 0 0 0 0 0 0 0 0 10 19 10 0 0 0 0 0 0 0 0 0 0 0 0 0 0 0 0 0 0 14 52 231 351 277 150 98 25 103 65 68 87 139
0 0 0 0 0 0 0 0 0 0 12 24 3 0 0 0 0 0 0 0 0 0 0 0 0 0 0 0 0 0 2 137 387 498 418 524 521 274 350 224 128 155 110 157
0 0 0 0 0 0 0 0 0 0 1 2 1 0 0 0 0 0 0 0 0 15 0 0 0 0 0 0 0 0 40 243 414 234 110 368 434 359 315 357 230 152 153 184
0 0 0 0 0 0 0 0 0 0 0 0 0 0 0 0 2 0 0 0 9 27 0 1 0 0 0 0 0 0 55 209 483 214 144 179 326 256 347 170 104 143 183 162
0 0 0 0 0 0 0 0 0 0 0 0 0 0 0 3 0 0 0 3 65 36 0 0 0 0 0 0 0 0 8 11 331 269 69 268 229 134 96 9 20 51 130 157
0 0 0 0 0 0 0 0 0 0 0 0 0 0 0 0 0 0 0 26 105 37 0 0 0 0 0 0 0 0 0 0 0 66 13 81 104 163 164 120 12 37 77 41
0 0 0 0 0 0 0 0 0 0 7 30 5 0 5 0 0 0 0 129 233 55 0 0 0 0 0 0 0 0 0 0 0 0 5 17 4 154 114 0 0 10 39 169
0 0 0 0 0 0 0 0 0 0 0 1 26 15 1 0 0 2 46 228 255 59 0 0 0 0 0 0 0 0 0 0 0 0 0 0 2 87 490 394 36 48 245 140
0 0 0 0 0 0 0 0 0 0 0 5 28 14 21 0 10 131 231 310 189 6 0 0 0 0 0 0 0 0 0 0 0 0 0 0 0 21 63 26 58 165 50 263
0 0 0 0 0 0 0 0 0 0 0 6 29 29 4 0 6 63 336 335 73 0 0 0 0 0 0 0 0 0 0 0 0 0 0 0 0 0 0 26 89 36 129 64
0 0 0 0 0 0 0 0 0 0 0 0 22 92 0 0 0 61 298 324 15 0 0 0 0 0 0 0 0 0 0 0 0 0 0 0 0 0 0 0 72 135 143 83
0 0 0 6 0 0 0 0 0 0 0 13 5 1 0 0 0 24 214 272 17 0 0 0 0 0 0 0 0 0 0 0 0 0 0 0 0 0 0 0 0 114 178 143
0 0 0 0 0 0 0 0 0 0 0 0 0 13 3 1 2 77 160 286 60 0 0 0 0 0 0 0 0 0 0 0 0 0 0 0 0 0 0 0 0 0 2 73
0 0 0 0 0 0 0 0 0 0 0 0 0 0 2 16 16 40 192 289 182 0 0 0 0 0 0 0 0 0 0 0 0 0 0 0 0 0 0 0 0 0 0 0
0 0 0 0 0 0 0 0 0 0 0 0 0 0 1 13 9 61 212 260 232 43 0 0 0 0 0 0 0 0 0 0 0 0 0 0 0 0 0 0 0 0 0 0
0 0 0 0 0 0 0 0 0 0 0 0 0 0 0 3 4 25 89 155 199 110 0 0 1 0 0 0 0 0 0 0 0 0 0 0 0 0 0 0 0 0 0 0
0 0 0 0 0 1 0 0 0 0 0 0 0 0 0 0 8 4 10 166 190 184 3 0 28 0 0 0 0 0 0 0 0 0 0 0 0 0 0 0 0 0 0 0
0 3 0 0 0 1 0 0 0 0 0 0 0 0 0 0 0 1 0 157 164 197 125 0 33 10 0 0 0 0 0 0 0 0 0 0 0 0 0 0 0 0 0 0
3 7 1 0 34 1 0 0 0 0 0 0 0 0 0 0 0 1 3 24 135 238 259 110 54 51 0 0 0 0 0 0 0 0 0 0 0 0 0 0 0 0 0 0
28 46 12 1 19 2 0 6 0 0 0 0 0 0 0 0 0 20 9 10 177 214 343 263 101 127 53 0 0 0 0 0 0 0 0 0 0 0 0 0 0 0 0 0
0 3 30 11 13 11 8 28 0 0 0 0 0 0 0 0 0 1 47 187 240 197 350 299 145 146 196 0 0 0 0 0 0 0 0 0 0 0 0 0 0 0 0 0
11 7 17 35 22 59 20 12 9 0 21 16 65 4 0 0 0 0 14 162 190 233 357 390 401 275 294 88 0 0 0 0 0 0 0 0 0 0 0 0 0 0 0 0
11 22 32 27 112 111 121 95 37 8 29 25 36 90 107 105 56 72 210 206 259 285 416 378 439 404 421 299 28 0 0 0 0 0 0 0 0 0 0 0 0 0 0 0
0 0 34 20 36 11 20 57 84 83 84 262 331 149 84 162 188 139 195 204 297 403 449 357 356 469 465 438 189 13 11 0 0 0 0 0 0 0 0 0 0 0 0 0
0 0 0 26 3 0 2 13 15 74 150 156 94 85 115 93 75 97 92 270 353 343 343 464 380 368 485 493 379 186 54 3 0 11 0 0 0 0 0 0 0 0 0 0
CIN
-0 -0 -0 -0 -0 -0 -0 -2 -4 -5 -9 -9 -5 -0 -0 -17 -0 -0 -0 -0 -0 -0 -0 -0 -0 -0 -0 -0 -0 -217 -0 -91 -0 -114 -5 -29 -7 -2 -3 -14 -10 -0 -1 -1
-0 -0 -0 -0 -0 -0 -0 -0 -0 -0 -4 -4 -4 -0 -0 -0 -0 -0 -0 -0 -0 -0 -0 -0 -0 -0 -0 -0 -0 -0 -0 -195 -89 -4 -1 -4 -2 -4 -6 -0 -2 -1 -0 -2
-0 -0 -0 -0 -0 -0 -0 -0 -0 -0 -2 -7 -2 -0 -0 -0 -0 -0 -0 -0 -0 -0 -0 -0 -0 -0 -0 -0 -0 -0 -49 -64 -4 -2 -2 -0 -0 -1 -1 -1 -1 -0 -0 -1
-0 -0 -0 -0 -0 -0 -0 -0 -0 -0 -3 -4 -3 -0 -0 -0 -0 -0 -0 -0 -0 -156 -0 -0 -148 -0 -0 -0 -0 -0 -134 -15 -1 -15 -5 -2 -1 -1 -1 -0 -1 -1 -0 -0
-0 -0 -0 -0 -0 -0 -0 -0 -0 -2 -0 -0 -0 -0 -0 -0 -4 -0 -0 -0 -136 -133 -0 -141 -0 -0 -0 -0 -0 -0 -119 -20 -1 -4 -7 -2 -1 -1 -2 -5 -3 -2 -1 -1
-0 -0 -0 -0 -0 -0 -0 -0 -0 -0 -0 -0 -0 -0 -0 -3 -2 -0 -0 -13 -53 -106 -0 -0 -0 -0 -0 -0 -0 -0 -64 -123 -1 -1 -10 -1 -1 -0 -16 -15 -9 -4 -4 -0
-0 -0 -0 -0 -0 -0 -0 -0 -0 -0 -0 -0 -2 -0 -0 -0 -0 -0 -0 -9 -37 -127 -0 -0 -0 -0 -0 -0 -0 -0 -0 -0 -0 -14 -23 -8 -3 -1 -0 -1 -20 -6 -2 -14
-0 -0 -0 -0 -0 -0 -0 -0 -0 -0 -6 -5 -7 -0 -3 -0 -0 -0 -3 -18 -38 -129 -0 -0 -0 -0 -0 -0 -0 -0 -0 -0 -0 -0 -15 -36 -1 -1 -2 -16 -0 -28 -8 -0
-0 -0 -0 -0 -0 -0 -0 -0 -0 -0 -0 -7 -8 -5 -1 -0 -0 -1 -2 -28 -66 -152 -0 -0 -0 -0 -0 -0 -0 -0 -0 -0 -0 -0 -0 -0 -0 -2 -1 -1 -16 -8 -1 -4
-0 -0 -0 -0 -0 -0 -0 -0 -0 -0 -0 -5 -5 -4 -6 -0 -5 -3 -11 -29 -101 -115 -0 -0 -0 -0 -0 -0 -0 -0 -0 -0 -0 -0 -0 -0 -0 -3 -5 -11 -8 -15 -32 -1
-0 -0 -0 -0 -0 -0 -0 -0 -0 -0 -0 -6 -4 -5 -21 -1 -4 -3 -2 -21 -102 -0 -0 -0 -0 -0 -0 -0 -0 -0 -0 -0 -0 -0 -0 -0 -0 -1 -0 -9 -16 -54 -14 -41
-0 -0 -0 -0 -0 -0 -0 -0 -0 -0 -0 -0 -6 -4 -0 -0 -1 -4 -1 -19 -26 -0 -0 -0 -0 -0 -0 -0 -0 -0 -0 -0 -0 -0 -0 -0 -0 -0 -0 -0 -11 -24 -16 -25
-0 -0 -0 -5 -0 -0 -0 -0 -0 -0 -0 -5 -3 -21 -2 -0 -0 -5 -4 -9 -63 -3 -0 -0 -0 -0 -0 -0 -0 -0 -0 -0 -0 -0 -0 -0 -0 -0 -0 -0 -0 -3 -4 -10
-0 -0 -0 -0 -0 -0 -0 -0 -0 -0 -0 -0 -0 -6 -14 -6 -7 -4 -3 -6 -46 -0 -0 -0 -0 -0 -0 -0 -0 -0 -0 -0 -0 -0 -0 -0 -0 -0 -0 -0 -0 -0 -9 -10
-0 -0 -0 -0 -0 -0 -0 -0 -0 -0 -0 -0 -0 -0 -3 -7 -9 -2 -2 -6 -36 -9 -0 -0 -0 -0 -0 -0 -0 -0 -0 -0 -0 -0 -0 -0 -0 -0 -1 -0 -0 -0 -0 -0
-0 -0 -0 -0 -0 -0 -0 -0 -0 -0 -0 -0 -0 -0 -4 -5 -7 -6 -3 -10 -28 -55 -0 -0 -0 -0 -0 -0 -0 -0 -0 -0 -0 -0 -0 -0 -0 -0 -0 -0 -0 -0 -0 -0
-0 -0 -0 -0 -0 -0 -0 -0 -0 -0 -0 -0 -0 -0 -0 -7 -7 -2 -4 -4 -29 -37 -0 -48 -52 -0 -0 -0 -0 -0 -0 -0 -0 -0 -0 -0 -0 -0 -0 -0 -0 -0 -0 -0
-0 -0 -0 -0 -0 -2 -0 -0 -0 -0 -0 -0 -0 -0 -0 -0 -5 -3 -5 -5 -30 -35 -81 -0 -158 -8 -0 -0 -0 -0 -0 -0 -0 -0 -0 -0 -0 -0 -0 -0 -0 -0 -0 -0
-0 -32 -0 -0 -0 -2 -0 -0 -0 -0 -0 -0 -0 -0 -0 -0 -0 -0 -0 -4 -25 -39 -45 -0 -137 -213 -0 -0 -0 -0 -0 -0 -0 -0 -0 -0 -0 -0 -0 -0 -0 -0 -0 -0
-6 -5 -7 -0 -4 -2 -0 -0 -0 -0 -0 -0 -0 -0 -0 -0 -0 -6 -3 -8 -8 -23 -35 -72 -114 -176 -0 -0 -0 -0 -0 -0 -0 -0 -0 -0 -0 -0 -0 -0 -0 -0 -0 -0
-5 -4 -6 -9 -4 -2 -0 -7 -0 -0 -0 -0 -0 -0 -0 -0 -0 -5 -5 -14 -7 -21 -20 -31 -87 -136 -222 -0 -0 -0 -0 -0 -0 -0 -0 -0 -0 -0 -0 -0 -0 -0 -0 -0
-0 -2 -4 -5 -8 -5 -5 -6 -0 -0 -0 -0 -0 -0 -0 -0 -0 -1 -9 -6 -13 -32 -41 -59 -70 -106 -171 -0 -0 -0 -0 -0 -0 -0 -0 -0 -0 -0 -0 -0 -0 -0 -0 -0
-3 -4 -8 -6 -7 -8 -7 -5 -12 -0 -23 -24 -33 -77 -0 -0 -0 -0 -23 -14 -25 -26 -52 -51 -39 -82 -138 -244 -0 -0 -0 -0 -0 -0 -0 -0 -0 -0 -0 -0 -0 -0 -0 -0
-11 -4 -5 -2 -10 -4 -6 -4 -7 -9 -5 -21 -35 -19 -21 -33 -36 -40 -19 -44 -39 -43 -49 -56 -47 -71 -126 -179 -258 -0 -0 -0 -0 -0 -0 -0 -0 -0 -0 -0 -0 -0 -0 -0
-0 -0 -6 -7 -12 -34 -7 -3 -5 -4 -3 -12 -18 -10 -26 -37 -30 -21 -30 -42 -38 -24 -43 -55 -64 -65 -101 -151 -200 -267 -255 -0 -0 -0 -0 -0 -0 -0 -0 -0 -0 -0 -0 -0
-0 -0 -0 -7 -41 -6 -12 -5 -12 -5 -10 -9 -25 -25 -19 -21 -13 -31 -35 -36 -44 -25 -31 -38 -61 -71 -72 -123 -158 -193 -255 -232 -0 -368 -0 -0 -0 -0 -0 -0 -0 -0 -0 -0
Wind_Speed
15 16 21 23 20 16 17 18 19 16 17 10 12 10 13 29 24 18 14 11 8 2 1 2 4 7 10 14 14 17 18 18 18 13 22 21 22 20 20 17 10 10 17 19
16 25 22 17 17 16 14 13 12 16 17 13 8 26 23 23 12 18 14 8 7 1 2 2 3 5 8 12 14 15 17 18 18 21 19 19 20 22 23 26 21 14 17 18
25 21 23 18 20 20 18 12 9 9 13 5 7 20 12 8 14 13 11 8 4 2 4 2 3 5 7 11 12 15 17 18 19 20 18 19 16 16 16 18 25 21 16 18
22 31 15 19 22 20 17 9 9 23 7 8 6 10 15 6 11 13 6 5 3 3 5 4 5 6 7 10 12 14 16 17 18 22 18 13 15 14 15 16 16 16 19 19
29 19 22 17 24 19 16 13 13 7 8 14 9 9 10 11 7 13 11 4 4 5 6 7 8 7 8 10 11 13 15 16 18 21 20 24 22 20 16 17 19 20 22 20
29 19 19 19 15 18 10 10 9 19 4 14 7 6 7 12 12 14 15 13 7 5 6 7 7 8 9 10 11 12 14 15 16 19 20 22 23 22 23 20 18 20 17 20
20 29 17 17 14 14 11 7 6 8 9 8 2 3 10 14 12 12 15 13 9 6 7 9 11 10 9 10 11 12 13 14 15 18 19 18 21 27 29 25 24 17 19 18
21 24 23 15 20 16 13 12 10 4 2 3 5 9 13 10 12 11 12 14 9 7 10 13 13 11 11 11 11 12 13 14 14 17 18 19 20 28 28 27 25 22 21 13
21 21 19 21 16 17 12 22 16 23 31 21 7 8 9 10 8 9 10 12 9 9 13 14 13 13 13 12 12 13 13 14 14 15 17 18 21 24 24 25 25 25 21 18
24 31 26 20 21 19 17 9 13 11 8 9 5 7 9 8 10 13 11 10 10 13 13 12 13 14 14 13 13 14 14 14 15 16 17 17 19 21 22 22 23 24 12 4
34 28 25 21 25 21 20 24 10 18 6 6 8 8 9 7 10 12 12 11 12 13 15 13 15 15 16 14 15 15 15 15 16 15 17 18 19 21 22 23 26 24 27 4
30 28 35 26 20 19 20 22 16 8 11 10 6 11 11 7 7 10 11 11 12 14 14 14 16 16 17 16 16 16 16 16 16 16 17 19 19 21 22 23 25 26 26 6
32 35 38 30 28 24 23 19 18 22 26 7 4 3 9 7 7 8 9 9 11 15 16 15 16 16 17 17 17 17 17 17 17 18 18 19 20 21 22 22 25 26 28 27
34 36 37 34 26 20 20 26 24 23 19 11 12 4 5 4 7 8 8 8 11 14 16 15 16 17 18 17 17 17 17 18 19 19 19 20 22 22 24 25 26 27 27 28
37 46 39 41 28 25 27 26 26 24 23 18 12 10 11 3 4 7 7 7 9 14 16 15 17 18 18 17 17 18 18 19 20 21 22 22 22 23 25 26 27 27 28 29
35 46 39 41 38 28 27 29 32 25 23 21 21 13 6 4 2 4 9 5 8 15 18 17 17 19 21 18 18 18 19 19 20 20 21 22 23 24 24 25 26 26 28 28
36 41 42 44 36 39 40 27 22 20 19 18 19 26 15 5 5 2 3 4 9 15 21 20 19 19 22 21 19 19 19 20 20 20 20 23 24 25 26 26 26 26 27 25
41 40 35 41 36 43 42 32 31 26 26 19 21 30 13 7 8 2 4 6 10 14 20 21 20 20 20 21 21 19 20 20 21 21 21 23 25 26 26 28 28 28 27 27
40 39 39 38 40 34 41 34 32 24 22 22 14 38 33 13 8 8 8 6 9 13 14 19 19 19 19 21 22 20 20 20 21 21 22 24 26 27 28 28 28 28 27 27
37 40 42 39 39 42 38 29 29 27 32 23 19 27 17 11 8 7 5 5 4 11 12 18 17 18 18 20 22 21 21 21 21 22 23 24 26 28 28 28 27 27 26 26
41 42 45 41 40 37 33 19 22 28 31 24 22 23 18 12 10 14 22 7 5 6 12 14 18 18 18 21 21 23 22 22 22 22 22 23 24 25 27 26 25 24 23 21
45 45 44 42 36 38 30 21 25 24 20 16 17 19 17 15 18 14 11 2 5 8 12 16 19 16 17 23 22 22 24 22 21 22 21 21 21 22 21 22 22 23 23 22
49 45 41 40 35 30 24 28 20 17 15 12 13 13 14 15 14 10 6 12 8 7 8 13 16 19 18 22 23 21 21 23 19 19 19 17 17 22 19 21 21 22 23 22
37 38 39 37 28 19 20 21 19 20 19 17 18 16 17 15 11 8 7 7 4 10 11 7 10 13 17 19 23 19 19 21 20 20 13 12 14 15 14 16 17 18 17 18
33 25 34 34 29 21 18 23 16 21 20 14 18 14 11 13 10 8 6 7 5 10 8 6 8 10 13 14 14 15 19 18 18 15 12 10 10 10 8 11 12 13 12 15
34 30 30 34 23 26 21 20 19 20 25 18 20 19 13 10 10 10 10 7 5 9 9 7 6 6 9 12 14 16 23 17 13 13 13 13 10 9 8 7 6 8 3 11
Wind_Direction
222 233 220 207 215 254 278 293 303 310 321 307 310 294 253 315 318 316 311 310 317 279 134 93 45 31 27 18 24 22 25 30 38 58 21 30 31 60 62 61 94 152 187 182
223 218 205 211 243 236 234 276 285 302 311 318 243 247 250 313 284 322 316 307 321 252 153 99 47 44 32 25 28 30 31 31 38 29 43 50 38 46 59 50 69 107 123 150
208 201 198 209 203 203 207 228 269 290 313 303 280 250 253 335 335 335 337 337 349 175 159 126 74 78 49 33 37 38 34 36 44 39 63 60 57 59 63 67 55 68 118 122
209 198 210 208 204 201 211 248 230 297 236 240 222 284 338 337 356 349 341 346 350 122 141 132 120 101 66 43 48 45 41 35 47 33 61 73 59 54 55 68 75 85 92 115
202 210 206 212 202 202 210 281 289 291 226 226 236 320 337 355 359 9 5 11 66 111 133 131 127 108 78 53 57 53 52 47 45 40 59 38 41 50 62 63 65 71 76 100
208 211 248 214 242 258 220 268 285 299 234 225 251 295 328 357 17 11 6 10 50 91 117 125 113 101 82 68 67 64 63 50 52 50 61 56 57 50 41 62 91 86 108 86
225 203 221 250 215 199 246 245 225 202 209 225 258 335 341 342 2 12 1 6 32 73 107 122 124 114 94 85 77 75 74 54 60 53 70 77 65 52 52 54 81 110 103 110
227 214 209 210 200 197 208 203 190 213 275 321 38 358 10 16 14 18 9 355 37 74 112 125 124 115 106 97 88 84 81 66 68 51 74 79 78 48 52 76 84 95 110 143
217 222 210 229 212 218 225 197 195 209 248 309 347 3 352 3 31 72 50 14 45 89 113 122 120 117 113 104 94 93 77 72 76 62 82 90 74 62 75 78 81 75 110 137
254 250 249 211 243 227 212 214 197 206 257 291 302 354 9 70 58 43 54 55 64 102 111 113 118 119 117 108 96 102 89 83 87 78 96 96 85 77 81 91 85 70 60 224
244 248 236 221 223 200 199 196 211 278 225 303 325 352 27 55 44 35 69 84 103 111 117 111 120 119 121 111 109 111 107 92 93 77 89 104 84 87 96 98 67 95 73 263
207 250 243 225 220 229 213 202 204 228 195 283 299 345 24 51 57 70 77 80 107 121 117 112 122 121 125 119 112 115 115 104 105 90 83 104 92 104 107 106 87 88 105 9
223 239 239 237 241 234 230 208 203 195 257 226 239 230 326 51 61 80 76 81 109 126 125 117 124 127 130 126 121 115 116 111 110 111 97 104 99 100 99 137 106 112 102 119
225 236 235 233 224 225 220 199 193 194 201 207 198 199 73 82 92 107 85 85 120 133 133 125 128 132 133 130 128 121 119 119 120 119 108 109 112 107 120 121 113 107 114 114
222 233 237 242 245 238 243 240 202 203 197 202 194 199 192 314 97 124 99 88 122 145 143 134 135 137 136 131 131 128 122 118 127 128 128 128 120 118 123 119 126 129 119 115
223 231 237 241 243 242 241 244 247 204 202 203 198 194 293 304 132 99 116 72 127 151 151 143 140 142 146 137 133 130 126 120 125 121 121 131 128 127 118 119 121 114 121 115
221 229 232 240 240 244 245 236 221 231 212 206 205 195 279 306 168 1 94 81 136 151 158 154 148 145 149 145 139 133 132 128 127 125 115 130 137 133 138 131 125 124 144 156
222 228 234 237 240 239 244 248 250 248 254 245 227 231 261 217 286 191 178 144 142 154 161 160 153 150 148 147 145 136 137 134 133 135 127 133 143 140 141 146 141 142 143 140
222 226 233 235 238 247 243 250 244 242 247 247 225 240 252 272 263 182 169 162 145 155 162 162 157 152 148 149 148 142 141 140 140 140 137 140 148 146 148 149 145 149 147 144
230 229 233 236 240 238 241 244 252 246 252 246 247 252 259 247 200 265 189 238 155 148 158 161 157 153 152 151 151 150 149 147 148 147 145 145 147 152 151 153 149 149 149 149
224 226 231 236 238 245 238 243 245 239 255 247 246 251 251 211 207 281 268 217 181 157 153 158 156 155 153 154 152 158 157 155 151 150 145 144 144 145 151 148 146 143 145 136
226 226 229 232 235 240 236 233 232 248 273 242 239 243 246 250 259 269 300 205 243 162 150 153 157 160 156 156 156 158 163 158 152 150 146 142 138 141 138 140 141 145 148 142
230 230 230 233 237 245 243 243 229 247 245 249 249 250 242 251 259 250 257 273 266 193 170 157 156 160 162 164 164 163 160 160 155 151 147 141 137 145 135 140 141 143 146 144
238 230 233 233 231 232 232 236 237 242 247 256 257 258 253 256 258 244 257 273 191 168 166 182 172 169 171 174 173 170 161 161 162 159 151 144 142 141 135 137 138 140 139 140
225 251 225 227 235 229 231 233 246 237 244 258 252 258 262 256 251 254 255 262 200 168 178 195 191 187 186 190 196 183 169 166 165 167 169 165 159 156 153 150 147 147 144 145
237 235 230 224 231 232 235 238 246 248 245 255 253 253 258 254 258 267 271 259 232 189 182 199 208 228 202 194 221 189 176 175 179 177 177 183 188 185 185 190 186 174 211 165